カタログに戻る

ONEWEB-0339

運用中通信PO
NORAD 49205·PAYLOAD·🇬🇧 United Kingdom

打ち上げ Sep 14, 2021 から Baikonur Cosmodrome

Loading…

次のパス (今後24時間)

TLE

最新Source: CelesTrak SupGP

元期: Sep 14, 2026, 17:33 UTC

1 49205C 21083V   26257.73143935 -.00002532  00000+0 -69403-2 0  2575
2 49205  87.8924 302.4101 0001982  91.8876  10.6126 13.13475589    13

AllMySatでONEWEB-0339をリアルタイム追跡

Download on the App Store